TimeCST,TemperatureF,Dew PointF,Humidity,Sea Level PressureIn,VisibilityMPH,Wind Direction,Wind SpeedMPH,Gust SpeedMPH,PrecipitationIn,Events,Conditions,WindDirDegrees,DateUTC
12:15 AM,10.6,7.5,87,29.78,0.2,Calm,Calm,-,N/A,Fog,Light Freezing Fog,0,2013-02-24 06:15:00
12:35 AM,10.6,7.9,89,29.78,0.2,Calm,Calm,-,N/A,Fog,Light Freezing Fog,0,2013-02-24 06:35:00
12:55 AM,11.1,8.8,90,29.78,0.2,Calm,Calm,-,N/A,Fog,Light Freezing Fog,0,2013-02-24 06:55:00
1:15 AM,12.2,9.7,90,29.78,0.2,North,3.5,-,N/A,Fog,Light Freezing Fog,360,2013-02-24 07:15:00
1:35 AM,13.1,10.9,91,29.79,0.2,Calm,Calm,-,N/A,Fog,Light Freezing Fog,0,2013-02-24 07:35:00
1:55 AM,14.0,11.5,90,29.79,0.2,Calm,Calm,-,N/A,Snow,Light Snow,0,2013-02-24 07:55:00
2:15 AM,-9999,-9999,N/A,29.80,0.2,Calm,Calm,-,N/A,Fog,Light Freezing Fog,0,2013-02-24 08:15:00
2:35 AM,-9999,-9999,N/A,29.79,0.2,Calm,Calm,-,N/A,Fog,Fog,0,2013-02-24 08:35:00
2:55 AM,-9999,-9999,N/A,29.80,0.2,SSE,3.5,-,N/A,Fog,Fog,150,2013-02-24 08:55:00
3:15 AM,-9999,-9999,N/A,29.79,0.2,Calm,Calm,-,N/A,Fog,Fog,0,2013-02-24 09:15:00
3:35 AM,-9999,-9999,N/A,29.80,0.2,Calm,Calm,-,N/A,Fog,Fog,0,2013-02-24 09:35:00
3:55 AM,-9999,-9999,N/A,29.80,0.2,Calm,Calm,-,N/A,Fog,Fog,0,2013-02-24 09:55:00
4:15 AM,-9999,-9999,N/A,29.80,0.2,Calm,Calm,-,N/A,Fog,Fog,0,2013-02-24 10:15:00
4:35 AM,-9999,-9999,N/A,29.79,0.2,Calm,Calm,-,N/A,Fog,Fog,0,2013-02-24 10:35:00
4:55 AM,-9999,-9999,N/A,29.80,0.2,Calm,Calm,-,N/A,Fog,Fog,0,2013-02-24 10:55:00
5:15 AM,-9999,-9999,N/A,29.80,0.2,Calm,Calm,-,N/A,Fog,Fog,0,2013-02-24 11:15:00
5:35 AM,-9999,-9999,N/A,29.81,0.2,North,3.5,-,N/A,Fog,Fog,350,2013-02-24 11:35:00
5:55 AM,-9999,-9999,N/A,29.81,0.2,NNW,3.5,-,N/A,Fog,Fog,340,2013-02-24 11:55:00
6:15 AM,-9999,-9999,N/A,29.82,0.2,Calm,Calm,-,N/A,Fog,Fog,0,2013-02-24 12:15:00
6:35 AM,-9999,-9999,N/A,29.82,0.2,Calm,Calm,-,N/A,Fog,Fog,0,2013-02-24 12:35:00
6:55 AM,-9999,-9999,N/A,29.83,0.2,Calm,Calm,-,N/A,Fog,Fog,0,2013-02-24 12:55:00
7:15 AM,-9999,-9999,N/A,29.82,0.2,Calm,Calm,-,N/A,Fog,Fog,0,2013-02-24 13:15:00
7:35 AM,-9999,-9999,N/A,29.85,0.2,Calm,Calm,-,N/A,Fog,Fog,0,2013-02-24 13:35:00
7:55 AM,-9999,-9999,N/A,29.86,0.2,Calm,Calm,-,N/A,Fog,Fog,0,2013-02-24 13:55:00
8:15 AM,-9999,-9999,N/A,29.86,0.2,Calm,Calm,-,N/A,Fog,Fog,0,2013-02-24 14:15:00
8:35 AM,-9999,-9999,N/A,29.86,0.2,Calm,Calm,-,N/A,Fog,Fog,0,2013-02-24 14:35:00
8:55 AM,-9999,-9999,N/A,29.89,0.2,Calm,Calm,-,N/A,Fog,Fog,0,2013-02-24 14:55:00
9:15 AM,-9999,-9999,N/A,29.90,0.2,Calm,Calm,-,N/A,Fog,Fog,0,2013-02-24 15:15:00
9:35 AM,-9999,-9999,N/A,29.91,0.5,Calm,Calm,-,N/A,Fog,Fog,0,2013-02-24 15:35:00
9:55 AM,-9999,-9999,N/A,29.90,0.2,NNW,3.5,-,N/A,Fog,Fog,330,2013-02-24 15:55:00
10:15 AM,-9999,-9999,N/A,29.90,0.5,NNW,3.5,-,N/A,Fog,Fog,340,2013-02-24 16:15:00
10:35 AM,23.4,21.9,94,29.90,0.5,NNW,4.6,-,N/A,Fog,Light Freezing Fog,330,2013-02-24 16:35:00
10:55 AM,23.9,22.5,94,29.91,1.5,NNW,4.6,-,N/A,,Overcast,330,2013-02-24 16:55:00
11:15 AM,25.3,23.9,94,29.91,2.5,NNW,4.6,-,N/A,,Overcast,340,2013-02-24 17:15:00
11:35 AM,27.5,26.2,95,29.90,3.0,North,9.2,-,N/A,,Overcast,360,2013-02-24 17:35:00
11:55 AM,29.5,26.6,89,29.91,5.0,ENE,5.8,-,N/A,,Overcast,60,2013-02-24 17:55:00
12:15 PM,29.3,26.2,88,29.91,5.0,NNE,6.9,-,N/A,,Overcast,30,2013-02-24 18:15:00
12:35 PM,30.2,26.6,86,29.91,5.0,NE,4.6,-,N/A,,Overcast,40,2013-02-24 18:35:00
12:55 PM,31.1,27.3,86,29.90,5.0,NNE,8.1,-,N/A,,Overcast,20,2013-02-24 18:55:00
1:15 PM,31.8,27.5,84,29.90,5.0,NE,9.2,-,N/A,,Haze,40,2013-02-24 19:15:00
1:35 PM,32.0,27.3,83,29.90,5.0,NE,10.4,-,N/A,,Haze,40,2013-02-24 19:35:00
1:55 PM,32.0,27.7,84,29.90,5.0,NE,9.2,-,N/A,,Overcast,40,2013-02-24 19:55:00
2:15 PM,32.4,28.0,84,29.89,5.0,NE,10.4,-,N/A,,Overcast,40,2013-02-24 20:15:00
2:35 PM,32.9,27.9,82,29.89,5.0,NE,11.5,-,N/A,,Haze,40,2013-02-24 20:35:00
2:55 PM,33.1,28.0,82,29.90,5.0,NNE,10.4,-,N/A,,Haze,30,2013-02-24 20:55:00
3:15 PM,32.9,27.9,82,29.89,7.0,NNE,11.5,-,N/A,,Overcast,30,2013-02-24 21:15:00
3:35 PM,32.9,27.3,80,29.90,7.0,NNE,12.7,-,N/A,,Overcast,30,2013-02-24 21:35:00
3:55 PM,32.4,27.1,81,29.90,7.0,North,13.8,-,N/A,,Overcast,10,2013-02-24 21:55:00
4:15 PM,32.2,27.3,82,29.90,7.0,NNE,13.8,-,N/A,,Overcast,20,2013-02-24 22:15:00
4:35 PM,32.0,27.5,83,29.90,7.0,NNE,12.7,-,N/A,,Overcast,30,2013-02-24 22:35:00
4:55 PM,32.0,27.3,83,29.91,7.0,NNE,16.1,-,N/A,,Overcast,30,2013-02-24 22:55:00
5:15 PM,32.0,27.1,82,29.92,7.0,NNE,13.8,-,N/A,,Overcast,20,2013-02-24 23:15:00
5:35 PM,31.8,27.3,83,29.92,5.0,North,13.8,-,N/A,,Haze,360,2013-02-24 23:35:00
5:55 PM,31.8,27.0,82,29.94,7.0,North,15.0,-,N/A,,Overcast,10,2013-02-24 23:55:00
6:15 PM,31.5,27.3,85,29.95,5.0,North,13.8,-,N/A,,Overcast,360,2013-02-25 00:15:00
6:35 PM,31.5,26.4,82,29.97,7.0,North,13.8,-,N/A,,Overcast,360,2013-02-25 00:35:00
6:55 PM,30.2,27.0,88,29.98,3.0,North,16.1,-,N/A,Snow,Light Snow,360,2013-02-25 00:55:00
7:15 PM,30.0,27.3,90,29.99,2.5,North,15.0,-,N/A,Snow,Light Snow,360,2013-02-25 01:15:00
7:35 PM,29.7,27.5,92,30.00,2.0,North,12.7,-,N/A,Snow,Light Snow,360,2013-02-25 01:35:00
7:55 PM,29.7,28.0,94,30.02,1.5,North,11.5,-,N/A,Snow,Light Snow,10,2013-02-25 01:55:00
8:15 PM,29.5,27.9,94,30.03,1.0,North,8.1,-,0.01,Snow,Light Snow,360,2013-02-25 02:15:00
8:35 PM,29.3,28.0,95,30.04,1.5,North,9.2,-,0.01,Snow,Light Snow,10,2013-02-25 02:35:00
8:55 PM,29.3,28.0,95,30.05,1.2,North,5.8,-,0.01,Snow,Light Snow,10,2013-02-25 02:55:00
9:15 PM,29.3,28.0,95,30.05,1.5,NNE,5.8,-,0.01,Snow,Light Snow,20,2013-02-25 03:15:00
9:35 PM,29.3,28.0,95,30.06,1.2,NNE,6.9,-,0.01,Snow,Light Snow,20,2013-02-25 03:35:00
9:55 PM,29.3,28.0,95,30.06,1.2,NNE,6.9,-,0.01,Snow,Light Snow,30,2013-02-25 03:55:00
10:15 PM,29.3,27.9,94,30.06,1.5,NNE,8.1,-,0.01,Snow,Light Snow,20,2013-02-25 04:15:00
10:35 PM,29.1,27.5,94,30.05,2.0,North,6.9,-,0.01,Snow,Light Snow,10,2013-02-25 04:35:00
10:55 PM,28.9,27.5,94,30.05,2.5,North,6.9,-,0.01,Snow,Light Snow,10,2013-02-25 04:55:00
11:15 PM,28.9,27.5,94,30.06,4.0,North,5.8,-,N/A,Snow,Light Snow,10,2013-02-25 05:15:00
11:35 PM,28.8,27.3,94,30.06,4.0,North,5.8,-,N/A,Snow,Light Snow,350,2013-02-25 05:35:00
11:55 PM,28.4,27.1,95,30.06,4.0,North,5.8,-,N/A,,Overcast,350,2013-02-25 05:55:00